Simultaneous Nadir Overpasses (SNOs) Predictions

Prediction of SNOs between NOAA-20 and AQUA Satellite Orbit:

Table of predicted SNOs for the next 14.0 days since TLE Epoch: 6/12/2020
Index Date (NOAA-20) Time (NOAA-20) Lat,Lon (NOAA-20) SZA (NOAA-20 ) Date (AQUA) Time (AQUA) Lat,Lon (AQUA) SZA (AQUA ) Distance(km) Time Diff (sec)
1 06/13/2020 13:39:42 75.64,-147.11 74.93 06/13/2020 13:40:40 75.64,-147.16 74.89 1.50 58
2 06/13/2020 14:30:08 -76.51, 23.18 106.15 06/13/2020 14:29:49 -76.51, 23.22 106.15 0.98 19
3 06/16/2020 05:56:29 75.93, -30.41 74.50 06/16/2020 05:57:02 75.92, -30.43 74.48 0.51 33
4 06/16/2020 06:46:57 -76.74, 139.84 106.53 06/16/2020 06:46:13 -76.75, 139.90 106.51 1.74 44
5 06/18/2020 22:13:17 76.21, 86.33 74.12 06/18/2020 22:13:25 76.21, 86.33 74.12 0.18 8
6 06/18/2020 23:03:45 -77.01,-103.31 106.91 06/18/2020 23:02:36 -77.02,-103.23 106.87 2.05 69
7 06/21/2020 13:39:48 -75.25, 31.68 104.69 06/21/2020 13:40:48 -75.26, 31.77 104.77 2.69 60
8 06/21/2020 14:30:04 76.53,-156.73 73.73 06/21/2020 14:29:47 76.53,-156.73 73.75 0.22 17
9 06/24/2020 05:56:33 -75.68, 148.77 105.14 06/24/2020 05:57:08 -75.68, 148.86 105.19 2.53 35




NCC Satellite Simultaneous Nadir Overpasses (SNOs) Prediction Service
